Location: Devore Heights
(34.2372°N, 117.4156°W)
Time: 08:34:52
(UTC+00:00)

Altair - Pass Details

Date: 18 September 2024
Orbit: 1501 x 1682 km, 47.2° (Epoch: 07 October)

Event Time Altitude Azimuth Distance (km) Brightness Sun altitude
Rises 18:40:42 0° 287° (WNW) 4,916 9.9 54.1°
Reaches altitude 10° 18:46:34 10° 261° (W) 3,896 9.6 54.6°
Maximum altitude 18:50:08 12° 239° (WSW) 3,675 9.7 54.9°
Drops below altitude 10° 18:53:41 10° 218° (SW) 3,844 10.0 55.2°
Sets 18:59:27 0° 191° (S) 4,780 10.5 55.6°
